Location: Kleszcz�wka
(50.0528°N, 18.7123°E)
Time: 07:57:32
(UTC+00:00)

Daily predictions for brighter satellites

Satellite Brightness Start Highest point End
(mag) Time Altitude Azimuth Time Altitude Azimuth Time Altitude Azimuth
Cosmos 1300 3.0 15:50:36 10° N 15:54:17 44° ENE 15:57:57 10° SSE
Cosmos 1486 Rocket 4.1 15:49:12 10° SSW 15:54:27 85° WNW 15:59:43 10° NNE
Landsat 5 3.3 15:54:11 10° NNE 15:58:09 64° ESE 16:01:59 10° S
Cosmos 1953 4.0 15:55:39 10° NNW 15:59:21 37° W 16:03:01 10° SSW
Lacrosse 5 2.1 15:54:30 10° WNW 15:59:27 51° NNE 16:04:23 10° E
Cosmos 1943 3.3 15:53:46 10° NNW 15:59:29 89° NE 16:05:09 10° SSE
Cosmos 1726 Rocket 4.0 16:01:12 10° N 16:05:20 40° ENE 16:09:27 10° SE
COSMOS 2455 3.9 16:00:32 10° SSE 16:05:29 27° ESE 16:10:28 10° NE
Meteor 1-24 Rocket 3.9 16:00:59 10° SSE 16:06:02 45° E 16:11:05 10° NNE
CREW DRAGON DEMO-1 DEB 2.8 16:04:44 10° WNW 16:07:37 61° N 16:10:24 11° E
ERS-2 4.0 16:07:31 10° ENE 16:09:21 13° E 16:11:10 10° ESE
Cosmos 1833 Rocket 4.4 16:07:04 10° N 16:10:02 14° NNE 16:12:57 10° ENE
Cosmos 1939 Rocket 3.2 16:06:14 10° SE 16:10:09 44° ENE 16:14:04 10° N
Cosmos 2082 Rocket 4.1 16:09:28 10° N 16:11:19 11° NNE 16:13:10 10° NE
NOSS 3-4 (A) 4.0 16:06:50 10° WSW 16:12:39 53° NW 16:19:00 10° NE
NOSS 3-4 (C) 4.0 16:06:59 10° WSW 16:12:49 53° NW 16:19:09 10° NE
Feng Yun 1-1 Rocket 4.3 16:11:55 10° SE 16:17:10 52° ENE 16:22:33 10° N
Cosmos 1674 4.1 16:13:55 10° SW 16:17:33 40° WNW 16:21:13 10° N
Cosmos 2279 Rocket 4.0 16:11:22 10° N 16:17:38 65° ENE 16:23:50 10° SSE
Cosmos 1315 Rocket 2.8 16:15:23 10° NNW 16:19:22 88° ENE 16:23:23 10° SSE
Cosmos 1503 Rocket 4.1 16:17:02 10° SSW 16:22:25 85° WNW 16:27:50 10° NNE
CZ-4 R/B 2.3 16:19:00 10° ESE 16:22:26 26° ENE 16:25:51 10° N
Cosmos 2227 4.2 16:17:55 10° SSW 16:23:34 85° ESE 16:29:18 10° NNE
Cosmos 1536 Rocket 4.5 16:19:42 10° SSW 16:23:59 51° WNW 16:28:20 10° N
COSMO-SKYMED 1 3.2 16:20:28 10° NNE 16:24:27 34° E 16:28:24 10° SSE
Cosmos 2227 Rocket 4.0 16:22:23 10° W 16:26:58 25° NW 16:31:35 10° NNE
ATLAS 2AS CENTAUR R/B 3.5 16:22:24 10° WSW 16:30:15 61° NW 16:37:55 10° NE
Cosmos 1634 Rocket 4.4 16:25:03 10° NNW 16:31:15 69° W 16:37:29 10° S
Cosmos 1844 Rocket 3.6 16:29:36 10° SSE 16:34:16 27° ESE 16:37:42 15° ENE
CZ-2C R/B 3.2 16:29:54 10° SE 16:35:05 56° ENE 16:40:34 10° N
Okean-O 3.2 16:32:59 10° SE 16:37:01 35° ENE 16:41:05 10° N
H-2A R/B 4.1 16:33:28 10° SSW 16:37:14 38° W 16:41:10 10° NNW
H-2A R/B 2.5 16:33:31 10° SE 16:38:04 36° ENE 16:42:43 10° N
CZ-4B R/B 1.6 16:35:27 10° NNE 16:38:46 48° E 16:42:00 10° S
CSL-04 DEB 4.4 16:35:00 10° NNE 16:39:13 64° ESE 16:43:18 10° S
Cosmos 2344 4.4 16:31:20 10° NW 16:39:30 48° NNE 16:49:28 13° E
Okean O Rocket 2.4 16:35:39 10° S 16:40:00 55° W 16:44:23 10° NNW
SeaSat 1 4.3 16:36:07 10° N 16:40:05 25° NW 16:44:03 10° W
Cosmos 158 Rocket 4.4 16:35:32 10° NNW 16:40:35 41° ENE 16:45:40 10° SE
Cosmos 773 Rocket 4.4 16:36:23 10° NNW 16:41:31 68° WSW 16:46:36 10° SSE
Cosmos 1680 Rocket 4.2 16:37:14 10° N 16:41:55 31° NE 16:46:09 12° ESE
SMAP 4.5 16:37:41 10° S 16:42:06 42° W 16:46:33 10° NNW
Cosmos 1626 3.5 16:39:53 10° SSW 16:43:24 40° WNW 16:46:56 10° N
CZ-4B R/B 4.2 16:38:42 10° S 16:44:05 52° W 16:49:37 10° NNW
Cosmos 1689 Rocket 4.2 16:48:09 14° SE 16:48:09 14° SE 16:48:48 10° SE
Aureole 2 Rocket 3.1 16:45:26 10° SSE 16:48:01 26° ESE 16:48:03 26° ESE
Meteor 2-10 Rocket 3.5 16:45:30 10° N 16:51:07 77° ENE 16:56:26 10° SSE
Cosmos 1818 4.3 16:46:56 10° S 16:51:43 33° ESE 16:54:12 22° ENE
Cosmos 2297 Rocket 4.4 16:48:17 10° WNW 16:51:52 17° NNW 16:55:28 10° N
Cosmos 1606 Rocket 4.4 16:51:55 10° NNW 16:56:11 53° W 17:00:28 10° S
CZ-2D R/B 3.2 16:52:50 10° SSE 16:56:42 89° SW 17:00:35 10° NNW
H-2A R/B 3.0 16:52:47 10° N 16:57:08 50° WNW 17:01:22 10° SW
USA 234 3.6 16:52:59 20° ENE 16:57:24 52° N 17:03:43 10° WNW
SAR-Lupe-4 4.2 16:57:08 31° E 16:57:39 33° E 17:00:55 10° SSE
Aureole 1 4.4 16:55:52 10° NNW 16:58:53 44° ENE 16:59:24 40° E
CSL-04 Rocket 4.1 16:53:56 10° SE 16:58:56 40° ENE 17:04:02 10° N
YAOGAN 1 2.6 16:55:06 10° SSE 16:59:18 53° ENE 17:03:32 10° N
Cosmos 1892 Rocket 3.4 16:55:57 10° S 17:00:18 84° ESE 17:04:40 10° NNE
Cosmos 1092 Rocket 4.4 16:56:09 10° SSE 17:01:42 36° E 17:07:15 10° NNE
ATLAS 5 CENTAUR R/B 2.1 16:58:54 10° WSW 17:02:56 53° NW 17:06:05 19° NNE
Meteor 2-1 Rocket 4.1 16:58:38 10° N 17:04:13 65° ENE 17:09:41 10° SSE
Helios 1A Rocket 3.1 17:01:10 10° SE 17:05:09 49° ENE 17:09:10 10° N
Iridium 4 Rocket 4.1 17:00:22 10° N 17:05:41 37° ENE 17:10:38 10° SE
MOS 1 Rocket 3.0 17:02:22 10° NNE 17:06:43 67° ESE 17:10:58 10° S
RESURS DK-1 4.1 17:04:41 10° WSW 17:08:17 28° NW 17:11:53 10° NNE
SAR-Lupe-1 4.4 17:08:17 41° E 17:08:36 42° E 17:12:00 10° S
Cosmos 1812 Rocket 4.0 17:07:12 10° N 17:11:19 36° ENE 17:11:36 36° E
SKYMED 2 3.6 17:08:14 10° NNE 17:12:37 83° WNW 17:16:58 10° SSW
Cosmos 1538 Rocket 4.5 17:10:05 10° NNW 17:15:12 61° WSW 17:20:17 10° S
Aureole 3 2.7 17:11:34 10° N 17:15:16 71° ENE 17:18:24 10° SSE
SJ-11-01 4.2 17:12:17 10° SSE 17:16:57 67° ENE 17:21:37 10° N
CZ-4C R/B 3.5 17:12:01 10° W 17:16:59 34° NNW 17:21:18 17° NNE
CZ-3B R/B 1.7 17:15:15 10° WNW 17:17:42 86° NNE 17:20:10 28° ESE
SJ 16-02 1.4 17:13:32 10° S 17:17:48 52° ESE 17:18:57 40° ENE
Nadezhda 4 Rocket 3.9 17:12:45 10° S 17:18:59 75° E 17:25:11 10° NNE
Cosmos 2112 Rocket 4.1 17:14:26 10° NNW 17:19:34 50° ENE 17:21:52 30° ESE
Cosmos 1777 Rocket 4.2 17:16:01 10° SSW 17:21:16 72° WNW 17:26:00 13° NNE
Cosmos 2263 Rocket 3.4 17:18:18 10° WSW 17:23:38 40° NW 17:28:56 10° NNE
Cosmos 1455 2.1 17:21:57 10° NNW 17:25:46 83° W 17:29:35 10° S
Cosmos 2058 Rocket 4.0 17:23:15 10° NNW 17:27:38 51° W 17:31:59 10° S
COSMOS 2406 3.7 17:26:56 10° NNW 17:32:21 38° NE 17:32:43 38° ENE
X-37B 2.8 17:31:43 10° SSW 17:33:14 18° S 17:33:14 18° S
Meteor 2-13 Rocket 4.4 17:31:22 10° S 17:37:30 87° W 17:43:41 10° N
ARGOS 3.0 17:32:17 10° SSE 17:37:39 79° ENE 17:43:03 10° NNW
Cosmos 44 4.5 17:37:35 10° S 17:40:18 27° SSE 17:40:18 27° SSE
Okean 1-7 Rocket 4.2 17:37:26 10° SSW 17:41:55 58° WNW 17:46:27 10° N
Lacrosse 5 2.4 17:37:35 10° WNW 17:42:32 56° SW 17:45:00 28° SSE
NOSS 3-1 (C) 3.9 17:35:33 10° NW 17:42:47 73° NE 17:47:11 31° ESE
CREW DRAGON DEMO-1 DEB 4.3 17:39:58 10° WNW 17:41:52 34° W 17:41:52 34° W
ERS-2 2.6 17:42:03 36° N 17:43:14 57° WNW 17:46:49 10° SSW
CZ-2C R/B 3.0 17:45:49 45° ESE 17:45:49 45° ESE 17:50:26 10° S
PSLV R/B 4.1 17:43:31 29° N 17:45:38 72° WNW 17:49:49 10° SSW
ISS -2.1 17:43:04 10° SW 17:45:00 28° SSW 17:45:00 28° SSW
CSL-04 Debris 4.1 17:42:21 10° SSE 17:47:45 85° WSW 17:53:11 10° NNW
COSMOS 2455 3.1 17:44:59 10° SW 17:51:00 68° NW 17:54:03 30° NNE
Cosmos 1553 Rocket 4.1 17:44:45 10° N 17:51:02 51° ENE 17:51:29 50° E
Cosmos 1626 Rocket 3.5 17:48:42 10° SSW 17:53:04 80° W 17:54:01 54° N
Cosmos 1833 Rocket 3.1 17:50:04 10° NNW 17:54:41 43° NNE 17:54:41 43° NNE
Cosmos 1844 3.6 17:49:59 10° SSW 17:55:39 83° ESE 17:57:10 51° NE
USA 281 4.1 17:56:41 31° NNE 17:56:41 31° NNE 18:01:33 10° NNW
Cosmos 2026 Rocket 3.8 17:50:01 10° S 17:56:03 69° E 18:02:13 10° NNE
Cosmos 990 Rocket 4.2 17:52:08 10° S 17:56:17 51° SSE 17:56:17 51° SSE
CZ-4 R/B 3.0 17:53:35 10° SSW 17:57:21 34° W 18:01:05 10° NNW
Cosmos 2082 Rocket 3.4 17:52:19 10° NNW 17:55:56 28° NNE 17:55:56 28° NNE
USA 229 DEB 3.8 17:52:34 10° NW 17:59:47 70° NE 18:01:49 50° ESE
USA 229 3.8 17:52:40 10° NW 17:59:52 69° NE 18:01:52 50° ESE
COSMO-SKYMED 1 4.4 17:56:45 10° N 18:00:33 30° WNW 18:04:20 10° SW
USA 267 3.8 18:04:12 39° SE 18:04:12 39° SE 18:09:53 10° SSW
SL-08 RB Rocket 3.9 18:05:15 64° NNW 18:05:15 64° NNW 18:09:07 10° NNW
CZ-4B R/B 4.4 18:08:39 10° NNW 18:10:36 15° WNW 18:12:31 10° W
NOSS 3-1 (A) 3.9 18:08:04 10° NW 18:15:20 74° NE 18:16:58 59° ESE
H-2A R/B 3.4 18:12:55 10° SSW 18:17:29 36° W 18:22:12 10° NNW
Cosmos 1844 Rocket 3.1 18:12:12 10° SW 18:17:47 60° NW 18:19:25 43° N
ATLAS 2AS CENTAUR R/B 4.1 18:15:51 10° WNW 18:22:47 32° NNW 18:25:30 26° NNE
Meteor 2-15 4.4 18:16:46 10° NNW 18:22:58 84° W 18:24:42 50° S
Cosmos 1680 Rocket 4.4 18:19:13 10° NNW 18:24:14 47° WSW 18:26:36 28° SSW
Cosmos 1898 Rocket 4.5 18:20:31 10° SSW 18:23:42 38° SSW 18:23:42 38° SSW
Cosmos 2098 Rocket 4.3 18:25:49 10° S 18:32:57 84° W 18:40:27 10° N
Cosmos 1818 4.1 18:29:44 10° WSW 18:34:52 55° NW 18:34:52 55° NW
USA 234 3.1 18:40:20 83° NNW 18:40:20 83° NNW 18:46:44 10° WNW
ATLAS 5 CENTAUR R/B 3.9 18:45:17 10° WNW 18:47:37 19° NNW 18:47:37 19° NNW
Cosmos 2344 4.4 18:45:43 10° NW 18:54:56 76° SW 18:59:35 43° SSE
SJ 16-02 3.7 18:53:11 10° WSW 18:55:59 22° WNW 18:55:59 22° WNW
CZ-4C R/B 4.1 19:02:24 10° NW 19:06:30 25° N 19:06:30 25° N
Cosmos 2082 Rocket 4.5 19:36:14 10° NW 19:37:48 19° NW 19:37:48 19° NW
